Orbital Elements at Epoch 2459000.5 (2020-May-31.0) TDB
Reference: JPL 17 (heliocentric ecliptic J2000)
Element | Value | Uncertainty (1-sigma) | Units |
e | .1640654766537338 | 6.4254e-08 | |
a | 2.721160197568327 | 2.6378e-08 | au |
q | 2.274711752703111 | 1.6584e-07 | au |
i | 13.3853945989665 | 6.9719e-06 | deg |
node | 56.61996675869897 | 2.9626e-05 | deg |
peri | 31.69970696125579 | 4.7492e-05 | deg |
M | 56.397348114282 | 3.0754e-05 | deg |
tp | 2458743.646330689888 (2019-Sep-17.14633069) | 0.00013973 | TDB |
period | 1639.568597521057 4.49 | 2.384e-05 6.527e-08 | d yr |
n | .2195699530622271 | 3.1926e-09 | deg/d |
Q | 3.167608642433543 | 3.0705e-08 | au |
|
| | Orbit Determination Parameters
Additional Information
|